contact:dominique.lefevre@mio.osupytheas.fr, maurice.libes@osupytheas.fr, didier.mallarino@osupytheas.fr
Project:EMSO http://www.emso-fr.org/EMSO-France
Depth: 2436.0 m
Title:EMSO Ligure Ouest : Data MII capteur MICROCAT
DateTime_Computer,Latitude,Longitude,Temperature,Conductivity,Pressure,DateTime_Instrument
DateTime_Computer,Latitude,Longitude,degC,S m-1,dbar,DateTime_Instrument
2021-07-27T00:00:34Z,42.805,6.029,13.2998,4.60015,2470.577,2021-7-27T02:01:51Z
2021-07-27T00:03:37Z,42.805,6.029,13.2996,4.60011,2470.563,2021-7-27T02:04:54Z
2021-07-27T00:06:41Z,42.805,6.029,13.3002,4.60014,2470.577,2021-7-27T02:07:57Z
2021-07-27T00:09:44Z,42.805,6.029,13.2998,4.60017,2470.553,2021-7-27T02:11:01Z
2021-07-27T00:12:47Z,42.805,6.029,13.2997,4.60014,2470.553,2021-7-27T02:14:04Z
2021-07-27T00:15:50Z,42.805,6.029,13.3000,4.60010,2470.553,2021-7-27T02:17:07Z
2021-07-27T00:18:53Z,42.805,6.029,13.2999,4.60013,2470.553,2021-7-27T02:20:10Z
2021-07-27T00:21:56Z,42.805,6.029,13.2998,4.60015,2470.52,2021-7-27T02:23:13Z
2021-07-27T00:24:59Z,42.805,6.029,13.2998,4.60011,2470.567,2021-7-27T02:26:16Z
2021-07-27T00:28:02Z,42.805,6.029,13.2999,4.60013,2470.553,2021-7-27T02:29:19Z
2021-07-27T00:31:05Z,42.805,6.029,13.2996,4.60010,2470.53,2021-7-27T02:32:22Z
2021-07-27T00:34:09Z,42.805,6.029,13.2999,4.60013,2470.516,2021-7-27T02:35:25Z
2021-07-27T00:37:12Z,42.805,6.029,13.3000,4.60011,2470.544,2021-7-27T02:38:29Z
2021-07-27T00:40:15Z,42.805,6.029,13.2998,4.60013,2470.544,2021-7-27T02:41:32Z
2021-07-27T00:43:18Z,42.805,6.029,13.3002,4.60010,2470.553,2021-7-27T02:44:35Z
2021-07-27T00:46:21Z,42.805,6.029,13.2999,4.60011,2470.53,2021-7-27T02:47:38Z
2021-07-27T00:49:24Z,42.805,6.029,13.2998,4.60014,2470.507,2021-7-27T02:50:41Z
2021-07-27T00:52:27Z,42.805,6.029,13.2998,4.60011,2470.507,2021-7-27T02:53:44Z
2021-07-27T00:55:30Z,42.805,6.029,13.2998,4.60012,2470.53,2021-7-27T02:56:47Z
2021-07-27T00:58:34Z,42.805,6.029,13.3002,4.60014,2470.507,2021-7-27T02:59:50Z
2021-07-27T01:01:37Z,42.805,6.029,13.3003,4.60014,2470.507,2021-7-27T03:02:54Z
2021-07-27T01:04:40Z,42.805,6.029,13.2998,4.60011,2470.53,2021-7-27T03:05:57Z
2021-07-27T01:07:43Z,42.805,6.029,13.3003,4.60011,2470.507,2021-7-27T03:09:00Z
2021-07-27T01:10:46Z,42.805,6.029,13.3004,4.60011,2470.483,2021-7-27T03:12:03Z
2021-07-27T01:13:49Z,42.805,6.029,13.3000,4.60009,2470.544,2021-7-27T03:15:06Z
2021-07-27T01:16:52Z,42.805,6.029,13.3000,4.60010,2470.507,2021-7-27T03:18:09Z
2021-07-27T01:19:55Z,42.805,6.029,13.2996,4.60011,2470.497,2021-7-27T03:21:12Z
2021-07-27T01:22:59Z,42.805,6.029,13.3001,4.60011,2470.507,2021-7-27T03:24:15Z
2021-07-27T01:26:02Z,42.805,6.029,13.2998,4.60011,2470.497,2021-7-27T03:27:19Z
2021-07-27T01:29:05Z,42.805,6.029,13.2997,4.60015,2470.52,2021-7-27T03:30:22Z
2021-07-27T01:32:08Z,42.805,6.029,13.2999,4.60011,2470.497,2021-7-27T03:33:25Z
2021-07-27T01:35:11Z,42.805,6.029,13.3001,4.60023,2470.52,2021-7-27T03:36:28Z
2021-07-27T01:38:14Z,42.805,6.029,13.2998,4.60029,2470.483,2021-7-27T03:39:31Z
2021-07-27T01:41:17Z,42.805,6.029,13.3004,4.60014,2470.483,2021-7-27T03:42:34Z
2021-07-27T01:44:20Z,42.805,6.029,13.3002,4.60014,2470.52,2021-7-27T03:45:37Z
2021-07-27T01:47:24Z,42.805,6.029,13.3002,4.60015,2470.483,2021-7-27T03:48:40Z
2021-07-27T01:50:27Z,42.805,6.029,13.3000,4.60017,2470.483,2021-7-27T03:51:44Z
2021-07-27T01:53:30Z,42.805,6.029,13.3001,4.60020,2470.483,2021-7-27T03:54:47Z
2021-07-27T01:56:33Z,42.805,6.029,13.3000,4.60013,2470.46,2021-7-27T03:57:50Z
2021-07-27T01:59:36Z,42.805,6.029,13.3004,4.60013,2470.46,2021-7-27T04:00:53Z
2021-07-27T02:02:39Z,42.805,6.029,13.3000,4.60014,2470.497,2021-7-27T04:03:56Z
2021-07-27T02:05:42Z,42.805,6.029,13.3006,4.60011,2470.497,2021-7-27T04:06:59Z
2021-07-27T02:08:45Z,42.805,6.029,13.3002,4.60013,2470.474,2021-7-27T04:10:02Z
2021-07-27T02:11:48Z,42.805,6.029,13.3004,4.60011,2470.483,2021-7-27T04:13:05Z
2021-07-27T02:14:52Z,42.805,6.029,13.3002,4.60012,2470.437,2021-7-27T04:16:09Z
2021-07-27T02:17:55Z,42.805,6.029,13.3006,4.60014,2470.474,2021-7-27T04:19:12Z
2021-07-27T02:20:58Z,42.805,6.029,13.2999,4.60016,2470.437,2021-7-27T04:22:15Z
2021-07-27T02:24:01Z,42.805,6.029,13.3000,4.60014,2470.474,2021-7-27T04:25:18Z
2021-07-27T02:27:04Z,42.805,6.029,13.3001,4.60011,2470.474,2021-7-27T04:28:21Z
2021-07-27T02:30:07Z,42.805,6.029,13.3001,4.60014,2470.483,2021-7-27T04:31:24Z
2021-07-27T02:33:10Z,42.805,6.029,13.2998,4.60012,2470.437,2021-7-27T04:34:27Z
2021-07-27T02:36:14Z,42.805,6.029,13.2998,4.60016,2470.437,2021-7-27T04:37:30Z
2021-07-27T02:39:17Z,42.805,6.029,13.3005,4.60019,2470.45,2021-7-27T04:40:34Z
2021-07-27T02:42:20Z,42.805,6.029,13.2999,4.60024,2470.497,2021-7-27T04:43:37Z
2021-07-27T02:45:23Z,42.805,6.029,13.3006,4.60019,2470.427,2021-7-27T04:46:40Z
2021-07-27T02:48:26Z,42.805,6.029,13.3000,4.60026,2470.437,2021-7-27T04:49:43Z
2021-07-27T02:51:29Z,42.805,6.029,13.3004,4.60052,2470.427,2021-7-27T04:52:46Z
2021-07-27T02:54:32Z,42.805,6.029,13.2997,4.60054,2470.46,2021-7-27T04:55:49Z
2021-07-27T02:57:35Z,42.805,6.029,13.2997,4.60050,2470.413,2021-7-27T04:58:52Z
2021-07-27T03:00:38Z,42.805,6.029,13.3002,4.60033,2470.46,2021-7-27T05:01:55Z
2021-07-27T03:03:42Z,42.805,6.029,13.2998,4.60039,2470.427,2021-7-27T05:04:59Z
2021-07-27T03:06:45Z,42.805,6.029,13.3004,4.60031,2470.437,2021-7-27T05:08:02Z
2021-07-27T03:09:48Z,42.805,6.029,13.3001,4.60026,2470.45,2021-7-27T05:11:05Z
2021-07-27T03:12:51Z,42.805,6.029,13.2996,4.60031,2470.45,2021-7-27T05:14:08Z
2021-07-27T03:15:54Z,42.805,6.029,13.2999,4.60025,2470.46,2021-7-27T05:17:11Z
2021-07-27T03:18:57Z,42.805,6.029,13.3003,4.60021,2470.427,2021-7-27T05:20:14Z
2021-07-27T03:22:00Z,42.805,6.029,13.3000,4.60019,2470.427,2021-7-27T05:23:17Z
2021-07-27T03:25:03Z,42.805,6.029,13.2998,4.60036,2470.413,2021-7-27T05:26:20Z
2021-07-27T03:28:07Z,42.805,6.029,13.2999,4.60040,2470.413,2021-7-27T05:29:23Z
2021-07-27T03:31:10Z,42.805,6.029,13.2998,4.60032,2470.427,2021-7-27T05:32:27Z
2021-07-27T03:34:13Z,42.805,6.029,13.2998,4.60031,2470.437,2021-7-27T05:35:30Z
2021-07-27T03:37:16Z,42.805,6.029,13.3000,4.60031,2470.437,2021-7-27T05:38:33Z
2021-07-27T03:40:19Z,42.805,6.029,13.2995,4.60029,2470.404,2021-7-27T05:41:36Z
2021-07-27T03:43:22Z,42.805,6.029,13.3000,4.60033,2470.45,2021-7-27T05:44:39Z
2021-07-27T03:46:25Z,42.805,6.029,13.3002,4.60032,2470.437,2021-7-27T05:47:42Z
2021-07-27T03:49:28Z,42.805,6.029,13.2997,4.60049,2470.413,2021-7-27T05:50:45Z
2021-07-27T03:52:32Z,42.805,6.029,13.2997,4.60064,2470.45,2021-7-27T05:53:48Z
2021-07-27T03:55:35Z,42.805,6.029,13.3000,4.60071,2470.413,2021-7-27T05:56:52Z
2021-07-27T03:58:38Z,42.805,6.029,13.2997,4.60076,2470.45,2021-7-27T05:59:55Z
2021-07-27T04:01:41Z,42.805,6.029,13.3004,4.60045,2470.427,2021-7-27T06:02:58Z
2021-07-27T04:04:44Z,42.805,6.029,13.2998,4.60037,2470.413,2021-7-27T06:06:01Z
2021-07-27T04:07:47Z,42.805,6.029,13.2999,4.60042,2470.39,2021-7-27T06:09:04Z
2021-07-27T04:10:50Z,42.805,6.029,13.2994,4.60046,2470.413,2021-7-27T06:12:07Z
2021-07-27T04:13:53Z,42.805,6.029,13.2999,4.60058,2470.437,2021-7-27T06:15:10Z
2021-07-27T04:16:57Z,42.805,6.029,13.3003,4.60054,2470.427,2021-7-27T06:18:13Z
2021-07-27T04:20:00Z,42.805,6.029,13.3000,4.60043,2470.437,2021-7-27T06:21:17Z
2021-07-27T04:23:03Z,42.805,6.029,13.2999,4.60044,2470.39,2021-7-27T06:24:20Z
2021-07-27T04:26:06Z,42.805,6.029,13.3000,4.60060,2470.413,2021-7-27T06:27:23Z
2021-07-27T04:29:09Z,42.805,6.029,13.2996,4.60040,2470.413,2021-7-27T06:30:26Z
2021-07-27T04:32:12Z,42.805,6.029,13.2999,4.60058,2470.38,2021-7-27T06:33:29Z
2021-07-27T04:35:15Z,42.805,6.029,13.3001,4.60046,2470.413,2021-7-27T06:36:32Z
2021-07-27T04:38:18Z,42.805,6.029,13.3009,4.60044,2470.39,2021-7-27T06:39:35Z
2021-07-27T04:41:22Z,42.805,6.029,13.3000,4.60078,2470.39,2021-7-27T06:42:38Z
2021-07-27T04:44:25Z,42.805,6.029,13.2997,4.60045,2470.45,2021-7-27T06:45:42Z
2021-07-27T04:47:28Z,42.805,6.029,13.2996,4.60037,2470.413,2021-7-27T06:48:45Z
2021-07-27T04:50:31Z,42.805,6.029,13.2995,4.60051,2470.404,2021-7-27T06:51:48Z
2021-07-27T04:53:34Z,42.805,6.029,13.2998,4.60059,2470.437,2021-7-27T06:54:51Z
2021-07-27T04:56:37Z,42.805,6.029,13.3002,4.60046,2470.39,2021-7-27T06:57:54Z
2021-07-27T04:59:40Z,42.805,6.029,13.2999,4.60063,2470.413,2021-7-27T07:00:57Z
2021-07-27T05:02:43Z,42.805,6.029,13.2998,4.60049,2470.413,2021-7-27T07:04:00Z
2021-07-27T05:05:47Z,42.805,6.029,13.2994,4.60033,2470.413,2021-7-27T07:07:03Z
2021-07-27T05:08:50Z,42.805,6.029,13.2998,4.60037,2470.404,2021-7-27T07:10:07Z
2021-07-27T05:11:53Z,42.805,6.029,13.2995,4.60037,2470.45,2021-7-27T07:13:10Z
2021-07-27T05:14:56Z,42.805,6.029,13.2997,4.60034,2470.413,2021-7-27T07:16:13Z
2021-07-27T05:17:59Z,42.805,6.029,13.2999,4.60040,2470.45,2021-7-27T07:19:16Z
2021-07-27T05:21:02Z,42.805,6.029,13.2997,4.60031,2470.437,2021-7-27T07:22:19Z
2021-07-27T05:24:05Z,42.805,6.029,13.2996,4.60044,2470.413,2021-7-27T07:25:22Z
2021-07-27T05:27:08Z,42.805,6.029,13.2998,4.60041,2470.413,2021-7-27T07:28:25Z
2021-07-27T05:30:12Z,42.805,6.029,13.3000,4.60036,2470.413,2021-7-27T07:31:28Z
2021-07-27T05:33:15Z,42.805,6.029,13.2998,4.60047,2470.404,2021-7-27T07:34:32Z
2021-07-27T05:36:18Z,42.805,6.029,13.3002,4.60031,2470.413,2021-7-27T07:37:35Z
2021-07-27T05:39:21Z,42.805,6.029,13.2995,4.60052,2470.437,2021-7-27T07:40:38Z
2021-07-27T05:42:24Z,42.805,6.029,13.2996,4.60039,2470.437,2021-7-27T07:43:41Z
2021-07-27T05:45:27Z,42.805,6.029,13.2996,4.60034,2470.46,2021-7-27T07:46:44Z
2021-07-27T05:48:30Z,42.805,6.029,13.2997,4.60042,2470.474,2021-7-27T07:49:47Z
2021-07-27T05:51:33Z,42.805,6.029,13.2998,4.60029,2470.413,2021-7-27T07:52:50Z
2021-07-27T05:54:37Z,42.805,6.029,13.2998,4.60032,2470.427,2021-7-27T07:55:53Z
2021-07-27T05:57:40Z,42.805,6.029,13.3001,4.60029,2470.45,2021-7-27T07:58:57Z
2021-07-27T06:00:43Z,42.805,6.029,13.3011,4.60031,2470.46,2021-7-27T08:02:00Z
2021-07-27T06:03:46Z,42.805,6.029,13.3002,4.60061,2470.437,2021-7-27T08:05:03Z
2021-07-27T06:06:49Z,42.805,6.029,13.3004,4.60044,2470.45,2021-7-27T08:08:06Z
2021-07-27T06:09:52Z,42.805,6.029,13.3001,4.60033,2470.45,2021-7-27T08:11:09Z
2021-07-27T06:12:55Z,42.805,6.029,13.3000,4.60030,2470.427,2021-7-27T08:14:12Z
2021-07-27T06:15:58Z,42.805,6.029,13.3000,4.60038,2470.437,2021-7-27T08:17:15Z
2021-07-27T06:19:01Z,42.805,6.029,13.3004,4.60062,2470.483,2021-7-27T08:20:18Z
2021-07-27T06:22:05Z,42.805,6.029,13.2998,4.60043,2470.45,2021-7-27T08:23:22Z
2021-07-27T06:25:08Z,42.805,6.029,13.2998,4.60032,2470.46,2021-7-27T08:26:25Z
2021-07-27T06:28:11Z,42.805,6.029,13.3053,4.60057,2470.483,2021-7-27T08:29:28Z
2021-07-27T06:31:14Z,42.805,6.029,13.3057,4.60050,2470.474,2021-7-27T08:32:31Z
2021-07-27T06:34:17Z,42.805,6.029,13.3061,4.60042,2470.497,2021-7-27T08:35:34Z
2021-07-27T06:37:20Z,42.805,6.029,13.3047,4.60055,2470.45,2021-7-27T08:38:37Z
2021-07-27T06:40:23Z,42.805,6.029,13.3048,4.60061,2470.474,2021-7-27T08:41:40Z
2021-07-27T06:43:26Z,42.805,6.029,13.3014,4.60051,2470.474,2021-7-27T08:44:43Z
2021-07-27T06:46:30Z,42.805,6.029,13.3021,4.60062,2470.46,2021-7-27T08:47:47Z
2021-07-27T06:49:33Z,42.805,6.029,13.3014,4.60049,2470.46,2021-7-27T08:50:50Z
2021-07-27T06:52:36Z,42.805,6.029,13.3101,4.60049,2470.46,2021-7-27T08:53:53Z
2021-07-27T06:55:39Z,42.805,6.029,13.3002,4.60053,2470.45,2021-7-27T08:56:56Z
2021-07-27T06:58:42Z,42.805,6.029,13.3085,4.60062,2470.507,2021-7-27T08:59:59Z
2021-07-27T07:01:45Z,42.805,6.029,13.3057,4.60056,2470.46,2021-7-27T09:03:02Z
2021-07-27T07:04:48Z,42.805,6.029,13.3057,4.60054,2470.46,2021-7-27T09:06:05Z
2021-07-27T07:07:51Z,42.805,6.029,13.3043,4.60052,2470.483,2021-7-27T09:09:08Z
2021-07-27T07:10:55Z,42.805,6.029,13.3070,4.60044,2470.483,2021-7-27T09:12:12Z
2021-07-27T07:13:58Z,42.805,6.029,13.3009,4.60069,2470.483,2021-7-27T09:15:15Z
2021-07-27T07:17:01Z,42.805,6.029,13.3012,4.60056,2470.483,2021-7-27T09:18:18Z
2021-07-27T07:20:04Z,42.805,6.029,13.3045,4.60046,2470.497,2021-7-27T09:21:21Z
2021-07-27T07:23:07Z,42.805,6.029,13.3035,4.60035,2470.497,2021-7-27T09:24:24Z
2021-07-27T07:26:10Z,42.805,6.029,13.3025,4.60055,2470.497,2021-7-27T09:27:27Z
2021-07-27T07:29:13Z,42.805,6.029,13.3036,4.60051,2470.507,2021-7-27T09:30:30Z
2021-07-27T07:32:16Z,42.805,6.029,13.3073,4.60047,2470.497,2021-7-27T09:33:33Z
2021-07-27T07:35:20Z,42.805,6.029,13.3029,4.60067,2470.483,2021-7-27T09:36:36Z
2021-07-27T07:38:23Z,42.805,6.029,13.3037,4.60041,2470.507,2021-7-27T09:39:40Z
2021-07-27T07:41:26Z,42.805,6.029,13.3033,4.60040,2470.52,2021-7-27T09:42:43Z
2021-07-27T07:44:29Z,42.805,6.029,13.3067,4.60041,2470.497,2021-7-27T09:45:46Z
2021-07-27T07:47:32Z,42.805,6.029,13.3069,4.60040,2470.544,2021-7-27T09:48:49Z
2021-07-27T07:50:35Z,42.805,6.029,13.3053,4.60051,2470.497,2021-7-27T09:51:52Z
2021-07-27T07:53:38Z,42.805,6.029,13.3046,4.60062,2470.553,2021-7-27T09:54:55Z
2021-07-27T07:56:41Z,42.805,6.029,13.3040,4.60040,2470.483,2021-7-27T09:57:58Z
2021-07-27T07:59:45Z,42.805,6.029,13.3041,4.60049,2470.52,2021-7-27T10:01:02Z
2021-07-27T08:02:48Z,42.805,6.029,13.3047,4.60039,2470.544,2021-7-27T10:04:05Z
2021-07-27T08:05:51Z,42.805,6.029,13.3031,4.60050,2470.497,2021-7-27T10:07:08Z
2021-07-27T08:08:54Z,42.805,6.029,13.3044,4.60056,2470.52,2021-7-27T10:10:11Z
2021-07-27T08:11:57Z,42.805,6.029,13.3046,4.60063,2470.53,2021-7-27T10:13:14Z
2021-07-27T08:15:00Z,42.805,6.029,13.3037,4.60044,2470.507,2021-7-27T10:16:17Z
2021-07-27T08:18:03Z,42.805,6.029,13.3030,4.60040,2470.53,2021-7-27T10:19:20Z
2021-07-27T08:21:06Z,42.805,6.029,13.3033,4.60046,2470.544,2021-7-27T10:22:23Z
2021-07-27T08:24:10Z,42.805,6.029,13.3034,4.60057,2470.52,2021-7-27T10:25:27Z
2021-07-27T08:27:13Z,42.805,6.029,13.3032,4.60040,2470.497,2021-7-27T10:28:30Z
2021-07-27T08:30:16Z,42.805,6.029,13.3034,4.60036,2470.507,2021-7-27T10:31:33Z
2021-07-27T08:33:19Z,42.805,6.029,13.3037,4.60044,2470.544,2021-7-27T10:34:36Z
2021-07-27T08:36:22Z,42.805,6.029,13.3038,4.60042,2470.53,2021-7-27T10:37:39Z
2021-07-27T08:39:25Z,42.805,6.029,13.3035,4.60043,2470.52,2021-7-27T10:40:42Z
2021-07-27T08:42:28Z,42.805,6.029,13.3033,4.60037,2470.544,2021-7-27T10:43:45Z
2021-07-27T08:45:31Z,42.805,6.029,13.3036,4.60036,2470.52,2021-7-27T10:46:48Z
2021-07-27T08:48:35Z,42.805,6.029,13.3043,4.60043,2470.52,2021-7-27T10:49:52Z
2021-07-27T08:51:38Z,42.805,6.029,13.3038,4.60044,2470.507,2021-7-27T10:52:55Z
2021-07-27T08:54:41Z,42.805,6.029,13.3036,4.60050,2470.52,2021-7-27T10:55:58Z
2021-07-27T08:57:44Z,42.805,6.029,13.3036,4.60039,2470.544,2021-7-27T10:59:01Z
2021-07-27T09:00:47Z,42.805,6.029,13.3040,4.60059,2470.544,2021-7-27T11:02:04Z
2021-07-27T09:03:50Z,42.805,6.029,13.3032,4.60047,2470.52,2021-7-27T11:05:07Z
2021-07-27T09:06:53Z,42.805,6.029,13.3031,4.60047,2470.53,2021-7-27T11:08:10Z
2021-07-27T09:09:56Z,42.805,6.029,13.3036,4.60040,2470.53,2021-7-27T11:11:13Z
2021-07-27T09:13:00Z,42.805,6.029,13.3034,4.60041,2470.507,2021-7-27T11:14:17Z
2021-07-27T09:16:03Z,42.805,6.029,13.3034,4.60035,2470.544,2021-7-27T11:17:20Z
2021-07-27T09:19:06Z,42.805,6.029,13.3027,4.60039,2470.544,2021-7-27T11:20:23Z
2021-07-27T09:22:09Z,42.805,6.029,13.3028,4.60047,2470.591,2021-7-27T11:23:26Z
2021-07-27T09:25:12Z,42.805,6.029,13.3036,4.60044,2470.52,2021-7-27T11:26:29Z
2021-07-27T09:28:15Z,42.805,6.029,13.3030,4.60034,2470.544,2021-7-27T11:29:32Z
2021-07-27T09:31:18Z,42.805,6.029,13.3035,4.60033,2470.544,2021-7-27T11:32:35Z
2021-07-27T09:34:22Z,42.805,6.029,13.3030,4.60033,2470.544,2021-7-27T11:35:38Z
2021-07-27T09:37:25Z,42.805,6.029,13.3032,4.60052,2470.52,2021-7-27T11:38:42Z
2021-07-27T09:40:28Z,42.805,6.029,13.3021,4.60032,2470.567,2021-7-27T11:41:45Z
2021-07-27T09:43:31Z,42.805,6.029,13.3034,4.60046,2470.53,2021-7-27T11:44:48Z
2021-07-27T09:46:34Z,42.805,6.029,13.3033,4.60042,2470.507,2021-7-27T11:47:51Z
2021-07-27T09:49:37Z,42.805,6.029,13.3041,4.60029,2470.507,2021-7-27T11:50:54Z
2021-07-27T09:52:40Z,42.805,6.029,13.3031,4.60037,2470.446,2021-7-27T11:53:57Z
2021-07-27T09:55:43Z,42.805,6.029,13.3034,4.60045,2470.52,2021-7-27T11:57:00Z
2021-07-27T09:58:47Z,42.805,6.029,13.3033,4.60034,2470.52,2021-7-27T12:00:03Z
2021-07-27T10:01:50Z,42.805,6.029,13.3030,4.60039,2470.53,2021-7-27T12:03:07Z
2021-07-27T10:04:53Z,42.805,6.029,13.3031,4.60036,2470.507,2021-7-27T12:06:10Z
2021-07-27T10:07:56Z,42.805,6.029,13.3031,4.60047,2470.507,2021-7-27T12:09:13Z
2021-07-27T10:10:59Z,42.805,6.029,13.3033,4.60053,2470.497,2021-7-27T12:12:16Z
2021-07-27T10:14:02Z,42.805,6.029,13.3031,4.60045,2470.52,2021-7-27T12:15:19Z
2021-07-27T10:17:05Z,42.805,6.029,13.3032,4.60039,2470.483,2021-7-27T12:18:22Z
2021-07-27T10:20:08Z,42.805,6.029,13.3029,4.60035,2470.53,2021-7-27T12:21:25Z
2021-07-27T10:23:12Z,42.805,6.029,13.3034,4.60037,2470.52,2021-7-27T12:24:29Z
2021-07-27T10:26:15Z,42.805,6.029,13.3039,4.60041,2470.483,2021-7-27T12:27:32Z
2021-07-27T10:29:18Z,42.805,6.029,13.3042,4.60052,2470.567,2021-7-27T12:30:35Z
2021-07-27T10:32:21Z,42.805,6.029,13.3030,4.60064,2470.497,2021-7-27T12:33:38Z
2021-07-27T10:35:24Z,42.805,6.029,13.3038,4.60042,2470.46,2021-7-27T12:36:41Z
2021-07-27T10:38:27Z,42.805,6.029,13.3040,4.60045,2470.483,2021-7-27T12:39:44Z
2021-07-27T10:41:30Z,42.805,6.029,13.3037,4.60043,2470.497,2021-7-27T12:42:47Z
2021-07-27T10:44:33Z,42.805,6.029,13.3035,4.60046,2470.507,2021-7-27T12:45:50Z
2021-07-27T10:47:37Z,42.805,6.029,13.3026,4.60033,2470.52,2021-7-27T12:48:54Z
2021-07-27T10:50:40Z,42.805,6.029,13.3034,4.60046,2470.52,2021-7-27T12:51:57Z
2021-07-27T10:53:43Z,42.805,6.029,13.3034,4.60046,2470.497,2021-7-27T12:55:00Z
2021-07-27T10:56:46Z,42.805,6.029,13.3034,4.60041,2470.483,2021-7-27T12:58:03Z
2021-07-27T10:59:49Z,42.805,6.029,13.3028,4.60040,2470.497,2021-7-27T13:01:06Z
2021-07-27T11:02:52Z,42.805,6.029,13.3063,4.60038,2470.446,2021-7-27T13:04:09Z
2021-07-27T11:05:55Z,42.805,6.029,13.3026,4.60037,2470.497,2021-7-27T13:07:12Z
2021-07-27T11:08:58Z,42.805,6.029,13.3037,4.60050,2470.497,2021-7-27T13:10:15Z
2021-07-27T11:12:02Z,42.805,6.029,13.3061,4.60042,2470.511,2021-7-27T13:13:19Z
2021-07-27T11:15:05Z,42.805,6.029,13.3054,4.60057,2470.46,2021-7-27T13:16:22Z
2021-07-27T11:18:08Z,42.805,6.029,13.3080,4.60037,2470.497,2021-7-27T13:19:25Z
2021-07-27T11:21:11Z,42.805,6.029,13.3027,4.60059,2470.497,2021-7-27T13:22:28Z
2021-07-27T11:24:14Z,42.805,6.029,13.3031,4.60049,2470.45,2021-7-27T13:25:31Z
2021-07-27T11:27:17Z,42.805,6.029,13.3042,4.60044,2470.46,2021-7-27T13:28:34Z
2021-07-27T11:30:20Z,42.805,6.029,13.3036,4.60040,2470.483,2021-7-27T13:31:37Z
2021-07-27T11:33:24Z,42.805,6.029,13.3039,4.60045,2470.437,2021-7-27T13:34:40Z
2021-07-27T11:36:27Z,42.805,6.029,13.3047,4.60037,2470.427,2021-7-27T13:37:44Z
2021-07-27T11:39:30Z,42.805,6.029,13.3035,4.60045,2470.46,2021-7-27T13:40:47Z
2021-07-27T11:42:33Z,42.805,6.029,13.3023,4.60049,2470.46,2021-7-27T13:43:50Z
2021-07-27T11:45:36Z,42.805,6.029,13.3039,4.60042,2470.437,2021-7-27T13:46:53Z
2021-07-27T11:48:39Z,42.805,6.029,13.3044,4.60037,2470.46,2021-7-27T13:49:56Z
2021-07-27T11:51:42Z,42.805,6.029,13.3036,4.60038,2470.474,2021-7-27T13:52:59Z
2021-07-27T11:54:45Z,42.805,6.029,13.3039,4.60039,2470.483,2021-7-27T13:56:02Z
2021-07-27T11:57:49Z,42.805,6.029,13.3053,4.60049,2470.45,2021-7-27T13:59:06Z
2021-07-27T12:00:52Z,42.805,6.029,13.3031,4.60038,2470.46,2021-7-27T14:02:09Z
2021-07-27T12:03:55Z,42.805,6.029,13.3036,4.60070,2470.45,2021-7-27T14:05:12Z
2021-07-27T12:06:58Z,42.805,6.029,13.3039,4.60060,2470.46,2021-7-27T14:08:15Z
2021-07-27T12:10:01Z,42.805,6.029,13.3028,4.60044,2470.45,2021-7-27T14:11:18Z
2021-07-27T12:13:04Z,42.805,6.029,13.3022,4.60040,2470.427,2021-7-27T14:14:21Z
2021-07-27T12:16:07Z,42.805,6.029,13.3037,4.60044,2470.46,2021-7-27T14:17:24Z
2021-07-27T12:19:10Z,42.805,6.029,13.3024,4.60049,2470.427,2021-7-27T14:20:27Z
2021-07-27T12:22:14Z,42.805,6.029,13.3035,4.60035,2470.437,2021-7-27T14:23:31Z
2021-07-27T12:25:17Z,42.805,6.029,13.3029,4.60044,2470.45,2021-7-27T14:26:34Z
2021-07-27T12:28:20Z,42.805,6.029,13.3033,4.60041,2470.437,2021-7-27T14:29:37Z
2021-07-27T12:31:23Z,42.805,6.029,13.3026,4.60029,2470.427,2021-7-27T14:32:40Z
2021-07-27T12:34:26Z,42.805,6.029,13.3031,4.60040,2470.45,2021-7-27T14:35:43Z
2021-07-27T12:37:29Z,42.805,6.029,13.3036,4.60036,2470.427,2021-7-27T14:38:46Z
2021-07-27T12:40:32Z,42.805,6.029,13.3031,4.60044,2470.437,2021-7-27T14:41:49Z
2021-07-27T12:43:35Z,42.805,6.029,13.3029,4.60042,2470.45,2021-7-27T14:44:52Z
2021-07-27T12:46:39Z,42.805,6.029,13.3051,4.60046,2470.413,2021-7-27T14:47:56Z
2021-07-27T12:49:42Z,42.805,6.029,13.3033,4.60046,2470.437,2021-7-27T14:50:59Z
2021-07-27T12:52:45Z,42.805,6.029,13.3030,4.60029,2470.45,2021-7-27T14:54:02Z
2021-07-27T12:55:48Z,42.805,6.029,13.3023,4.60031,2470.427,2021-7-27T14:57:05Z
2021-07-27T12:58:51Z,42.805,6.029,13.3041,4.60044,2470.404,2021-7-27T15:00:08Z
2021-07-27T13:01:54Z,42.805,6.029,13.3048,4.60040,2470.45,2021-7-27T15:03:11Z
2021-07-27T13:04:57Z,42.805,6.029,13.3032,4.60039,2470.404,2021-7-27T15:06:14Z
2021-07-27T13:08:01Z,42.805,6.029,13.3039,4.60046,2470.413,2021-7-27T15:09:17Z
2021-07-27T13:11:04Z,42.805,6.029,13.3037,4.60036,2470.45,2021-7-27T15:12:21Z
2021-07-27T13:14:07Z,42.805,6.029,13.3039,4.60033,2470.45,2021-7-27T15:15:24Z
2021-07-27T13:17:10Z,42.805,6.029,13.3041,4.60037,2470.45,2021-7-27T15:18:27Z
2021-07-27T13:20:13Z,42.805,6.029,13.3029,4.60033,2470.413,2021-7-27T15:21:30Z
2021-07-27T13:23:16Z,42.805,6.029,13.3070,4.60049,2470.413,2021-7-27T15:24:33Z
2021-07-27T13:26:19Z,42.805,6.029,13.3039,4.60033,2470.39,2021-7-27T15:27:36Z
2021-07-27T13:29:22Z,42.805,6.029,13.3035,4.60057,2470.39,2021-7-27T15:30:39Z
2021-07-27T13:32:26Z,42.805,6.029,13.3020,4.60057,2470.39,2021-7-27T15:33:42Z
2021-07-27T13:35:29Z,42.805,6.029,13.3013,4.60054,2470.38,2021-7-27T15:36:46Z
2021-07-27T13:38:32Z,42.805,6.029,13.3024,4.60052,2470.437,2021-7-27T15:39:49Z
2021-07-27T13:41:35Z,42.805,6.029,13.3040,4.60045,2470.427,2021-7-27T15:42:52Z
2021-07-27T13:44:38Z,42.805,6.029,13.3043,4.60049,2470.39,2021-7-27T15:45:55Z
2021-07-27T13:47:41Z,42.805,6.029,13.3053,4.60062,2470.39,2021-7-27T15:48:58Z
2021-07-27T13:50:44Z,42.805,6.029,13.3035,4.60044,2470.38,2021-7-27T15:52:01Z
2021-07-27T13:53:47Z,42.805,6.029,13.3036,4.60033,2470.38,2021-7-27T15:55:04Z
2021-07-27T13:56:51Z,42.805,6.029,13.3026,4.60057,2470.413,2021-7-27T15:58:08Z
2021-07-27T13:59:54Z,42.805,6.029,13.3023,4.60044,2470.366,2021-7-27T16:01:11Z
2021-07-27T14:02:57Z,42.805,6.029,13.3028,4.60032,2470.404,2021-7-27T16:04:14Z
2021-07-27T14:06:00Z,42.805,6.029,13.3020,4.60042,2470.366,2021-7-27T16:07:17Z
2021-07-27T14:09:03Z,42.805,6.029,13.3011,4.60046,2470.404,2021-7-27T16:10:20Z
2021-07-27T14:12:06Z,42.805,6.029,13.3018,4.60040,2470.343,2021-7-27T16:13:23Z
2021-07-27T14:15:09Z,42.805,6.029,13.3026,4.60041,2470.38,2021-7-27T16:16:26Z
2021-07-27T14:18:12Z,42.805,6.029,13.3021,4.60037,2470.38,2021-7-27T16:19:29Z
2021-07-27T14:21:16Z,42.805,6.029,13.3034,4.60050,2470.366,2021-7-27T16:22:33Z
2021-07-27T14:24:19Z,42.805,6.029,13.3019,4.60033,2470.404,2021-7-27T16:25:36Z
2021-07-27T14:27:22Z,42.805,6.029,13.3011,4.60031,2470.366,2021-7-27T16:28:39Z
2021-07-27T14:30:25Z,42.805,6.029,13.3021,4.60046,2470.343,2021-7-27T16:31:42Z
2021-07-27T14:33:28Z,42.805,6.029,13.3027,4.60029,2470.404,2021-7-27T16:34:45Z
2021-07-27T14:36:31Z,42.805,6.029,13.3037,4.60037,2470.413,2021-7-27T16:37:48Z
2021-07-27T14:39:34Z,42.805,6.029,13.3019,4.60037,2470.357,2021-7-27T16:40:51Z
2021-07-27T14:42:38Z,42.805,6.029,13.3009,4.60046,2470.366,2021-7-27T16:43:55Z
2021-07-27T14:45:41Z,42.805,6.029,13.3029,4.60031,2470.357,2021-7-27T16:46:58Z
2021-07-27T14:48:44Z,42.805,6.029,13.3026,4.60049,2470.404,2021-7-27T16:50:01Z
2021-07-27T14:51:47Z,42.805,6.029,13.3021,4.60036,2470.357,2021-7-27T16:53:04Z
2021-07-27T14:54:50Z,42.805,6.029,13.3034,4.60036,2470.38,2021-7-27T16:56:07Z
2021-07-27T14:57:53Z,42.805,6.029,13.3023,4.60023,2470.343,2021-7-27T16:59:10Z
2021-07-27T15:00:56Z,42.805,6.029,13.3019,4.60049,2470.334,2021-7-27T17:02:13Z
2021-07-27T15:03:59Z,42.805,6.029,13.3026,4.60037,2470.38,2021-7-27T17:05:16Z
2021-07-27T15:07:03Z,42.805,6.029,13.3037,4.60039,2470.39,2021-7-27T17:08:20Z
2021-07-27T15:10:06Z,42.805,6.029,13.3021,4.60031,2470.366,2021-7-27T17:11:23Z
2021-07-27T15:13:09Z,42.805,6.029,13.3024,4.60035,2470.39,2021-7-27T17:14:26Z